Regional Weather Roundup
Issued by NWS

Home | Current Version | Previous Version | Text Only | Print | Product List | Glossary On
Versions: 1 2 3 4 5 6 7 8 9 10 11 12 13 14 15 16 17 18 19 20 21 22 23 24 25 26 27 28 29 30 31 32 33 34 35 36 37 38 39 40 41 42 43 44 45 46 47 48 49 50
000
ASUS42 KFFC 240310
RWRGA
WEATHER ROUNDUP FOR GEORGIA
NATIONAL WEATHER SERVICE PEACHTREE CITY GA
1100 PM EDT TUE APR 23 2024

NOTE: "FAIR" INDICATES FEW OR NO CLOUDS BELOW 12,000 FEET WITH NO
SIGNIFICANT WEATHER AND/OR OBSTRUCTIONS TO VISIBILITY.

* = USE WITH CAUTION. THE STATIONS MARKED WITH AN ASTERISK MAY NOT
REPORT WEATHER SUCH AS PRECIPITATION, FOG, OR THUNDER AND ARE NOT
QUALITY CONTROLLED BY NWS.

THE REMARK "TC" DENOTES TEMPERATURE READING IN DEGREES CELSIUS.

GAZ001>058-240400-
NORTH GEORGIA

CITY           SKY/WX    TMP DP  RH WIND       PRES   REMARKS
ATLANTA        PTCLDY    62  43  49 SW5       30.12S TC  17
ATHENS         CLEAR     56  43  61 CALM      30.12R TC  13
CHAMBLEE       CLEAR     54  43  66 CALM      30.12S TC  12
PEACHTREE CITY CLEAR     53  46  77 CALM      30.13R TC  12
ROME           CLEAR     56  44  64 CALM      30.09R TC  13
WEST ATLANTA   CLEAR     55  44  66 CALM      30.12R TC  13
GAINESVILLE    CLEAR     61  40  45 SW5       30.13S TC  16
CARTERSVILLE   CLEAR     57  46  67 CALM      30.12R TC  14


CITY           SKY/WX    TMP DP  RH WIND       PRES   REMARKS
DALTON*        CLEAR     57  47  69 S3        30.09S TC  14
LAWRENCEVILLE* CLEAR     59  42  53 SW3       30.13R TC  15
MARIETTA       PTCLDY    62  40  44 S3        30.10S TC  17
KENNESAW*      CLEAR     59  42  53 CALM      30.13R TC  15
CANTON*        CLEAR     61  40  44 SW3       30.13S TC  16
BLAIRSVILLE*   CLEAR     53  41  64 CALM      30.13F TC  12
$$

GAZ059>098-102>109-240400-
CENTRAL GEORGIA

CITY           SKY/WX    TMP DP  RH WIND       PRES   REMARKS
AUGUSTA-BUSH   CLEAR     52  46  80 CALM      30.12R TC  11
AUGUSTA-DANIEL CLEAR     61  42  49 W3        30.13S TC  16
COLUMBUS       NOT AVBL
MACON          CLEAR     55  46  71 CALM      30.13R TC  13
ROBINS AFB     CLEAR     56  49  78 CALM      30.12S TC  13


CITY           SKY/WX    TMP DP  RH WIND       PRES   REMARKS
LAGRANGE*      CLEAR     52  46  78 CALM      30.14R TC  11
MILLEDGEVILLE* CLEAR     55  50  82 CALM      30.13R TC  13
$$

GAZ099>101-110>166-240400-
SOUTH GEORGIA

CITY           SKY/WX    TMP DP  RH WIND       PRES   REMARKS
SAVANNAH       CLEAR     57  47  69 S7        30.17F TC  14
VALDOSTA       CLEAR     55  50  83 CALM      30.16R TC  13
ALMA           CLEAR     60  46  59 SE3       30.16R TC  16
ST SIMONS      CLEAR     64  55  72 SE10      30.17S TC  18
FT STEWART     CLEAR     54  47  79 CALM      30.14S TC  12
ALBANY         CLEAR     57  46  66 CALM      30.16R TC  14
HUNTER AFB     CLEAR     61  49  65 S6        30.14F TC  16
MOODY AFB      CLEAR     60  50  71 CALM      30.14R TC  15
BRUNSWICK      CLEAR     56  53  89 SE5       30.17F TC  13


CITY           SKY/WX    TMP DP  RH WIND       PRES   REMARKS
BAINBRIDGE*    CLOUDY    61  46  58 S6        30.17R TC  16
MOULTRIE*      CLEAR     58  52  80 CALM      30.16R TC  15
VIDALIA*       CLEAR     61  48  63 CALM      30.16S TC  16
WAYCROSS*      CLEAR     61  47  61 S7        30.17S TC  16
DOUGLAS*         N/A     56  49  75 SE3       30.17S TC  14
$$



USA.gov is the U.S. government's official web portal to all federal, state and local government web resources and services.